Location: Calvatone
(45.1167°N, 10.4333°E)
Time: 10:13:38
(UTC+00:00)

METEOR M2 - Pass Details

Date: 05 December 2023
Orbit: 818 x 826 km, 98.4° (Epoch: 24 February)

Event Time Altitude Azimuth Distance (km) Brightness Sun altitude
Rises 04:57:42 0° 16° (NNE) 3,371 ? -17.5°
Reaches altitude 10° 05:00:06 10° 20° (NNE) 2,432 ? -17.1°
Maximum altitude 05:05:26 61° 101° (E) 934 ? -16.2°
Drops below altitude 10° 05:10:43 10° 181° (S) 2,410 ? -15.3°
Sets 05:13:04 0° 185° (S) 3,337 ? -14.9°
